Dewpoint
15 15 15 15 14 15 15 15 15 14 14 15 13 13 13 14 14 14 13 13 14 14 12 13 13 12 13 14 15 15 14 14 14 13 14 14 13 13 13 13 13 13 13
15 15 15 15 15 15 15 15 14 12 14 14 15 14 14 13 13 13 13 15 15 14 14 15 15 15 13 13 13 14 14 13 14 14 14 13 12 13 13 13 12 13 12
15 15 15 15 15 15 15 14 13 14 13 15 14 14 14 14 13 13 13 13 13 13 14 13 14 14 14 14 14 13 13 13 14 13 13 13 13 13 13 12 12 11 11
15 15 15 15 15 15 14 14 14 14 12 12 14 14 13 14 13 13 13 12 12 12 12 13 13 12 12 13 13 12 12 12 12 13 13 13 12 12 12 11 12 12 11
15 14 15 15 15 15 14 13 13 13 11 9 11 14 13 12 11 12 11 12 12 12 12 12 12 13 12 12 12 12 12 12 12 12 12 12 12 11 11 11 11 11 11
14 14 15 15 15 15 14 12 14 10 10 9 9 10 11 10 10 11 12 11 11 11 11 11 11 11 11 11 12 12 12 12 11 11 11 11 11 11 11 11 10 10 10
15 15 15 15 16 15 15 15 13 10 10 9 7 10 9 8 8 10 11 11 11 11 11 11 11 10 9 9 9 9 10 11 11 11 11 11 10 11 10 10 10 9 9
16 16 16 16 16 16 15 15 13 11 10 9 8 9 9 8 8 9 9 11 11 11 11 10 9 8 8 8 6 7 7 8 7 7 9 9 8 8 9 9 9 8 9
15 14 13 14 15 16 15 15 14 11 11 10 11 11 9 8 8 8 10 10 10 9 8 8 6 4 4 6 6 4 4 5 5 5 4 4 4 4 6 8 7 8 7
12 8 6 7 12 15 15 14 14 12 11 10 11 10 9 8 7 8 9 9 9 8 6 5 5 4 5 8 9 8 7 7 6 5 4 3 3 2 3 4 3 4 6
7 7 8 8 10 14 14 14 13 12 12 11 9 9 9 9 9 8 9 9 9 8 7 6 6 6 6 5 6 7 6 4 3 3 1 -2 -2 -1 0 -1 -2 2 3
8 8 9 9 11 13 13 13 13 12 12 11 10 9 10 10 9 9 9 9 8 7 6 6 6 6 6 6 5 4 1 1 1 -2 -3 -3 -3 -2 0 1 -11 -9 0
9 10 10 11 12 12 12 12 12 11 12 11 11 10 10 10 10 9 9 8 7 6 6 5 6 1 -2 -7 -9 -7 -2 -1 -3 -3 -3 -3 -2 -2 -2 -1 0 1 1
10 10 11 11 11 12 11 11 11 10 10 10 10 10 10 10 9 8 8 7 6 5 5 4 -2 -4 -2 -7 -2 -2 -1 -2 -2 -3 -4 -4 -4 -4 -3 -3 -4 -3 -2
10 10 10 11 11 10 10 10 10 9 9 9 9 9 9 8 8 7 6 5 5 4 -0 0 1 -0 -1 -1 -2 -2 -2 -2 -2 -3 -4 -5 -5 -4 -4 -4 -4 -4 -4
9 9 9 9 9 9 9 9 9 9 8 8 8 8 8 8 7 6 6 5 3 -2 1 1 -1 -2 -2 -2 -2 -2 -2 -3 -3 -4 -5 -5 -6 -5 -4 -4 -4 -4 -4
9 9 8 8 7 7 7 7 8 8 7 7 7 7 7 7 6 5 3 -2 -7 -6 0 -1 -1 -2 -2 -3 -4 -4 -3 -2 -4 -4 -5 -6 -6 -6 -6 -6 -5 -5 -5
8 7 5 3 2 2 3 4 4 5 4 4 5 6 5 4 2 -3 -7 -10 -4 -4 -2 -2 -2 -3 -3 -4 -4 -4 -4 -3 -3 -4 -4 -6 -6 -6 -7 -6 -6 -6 -6
-2 -2 -3 -4 -4 -4 -4 -4 -3 -2 -1 1 -0 -2 -2 -4 -6 -9 -7 -2 -1 -4 -5 -4 -3 -3 -3 -3 -3 -2 -2 -4 -4 -4 -4 -4 -5 -5 -6 -7 -7 -9 -11
-2 -2 -3 -2 -2 -3 -2 -2 -3 -2 -2 -2 -2 -2 -2 -8 -3 -4 -5 -2 -3 -4 -5 -4 -4 -3 -3 -3 -3 -2 -2 -2 -3 -4 -3 -4 -5 -5 -6 -7 -7 -7 -6
-2 -1 -2 -2 -2 -2 -2 -2 -2 -2 -4 -5 -4 -3 -3 -3 -3 -3 -3 -3 -3 -3 -4 -4 -4 -4 -3 -3 -2 -3 -3 -4 -4 -4 -4 -4 -5 -5 -5 -6 -7 -7 -7
-1 -1 -1 -1 -0 0 -0 0 -0 -1 -2 -3 -4 -4 -10 -7 -5 -6 -5 -5 -5 -4 -4 -4 -4 -4 -5 -4 -4 -3 -4 -4 -5 -5 -5 -5 -5 -5 -6 -7 -7 -7 -7
-0 -0 0 1 1 1 2 1 0 -0 -0 -1 -2 -3 -4 -6 -6 -6 -6 -5 -5 -4 -4 -4 -4 -4 -5 -6 -5 -4 -4 -5 -5 -5 -5 -4 -5 -5 -6 -6 -9 -8 -8
1 1 2 2 3 2 1 1 1 1 1 0 -1 -1 -2 -2 -3 -3 -3 -3 -3 -3 -3 -3 -3 -3 -4 -5 -5 -5 -5 -5 -5 -5 -5 -5 -4 -5 -6 -6 -10 -9 -8
3 3 3 3 2 2 3 2 2 2 1 1 2 1 1 0 -0 -0 -1 -2 -2 -2 -2 -3 -3 -3 -3 -3 -4 -5 -5 -5 -6 -6 -9 -7 -5 -5 -6 -7 -9 -10 -8
4 3 2 2 2 2 2 2 2 1 1 1 0 1 1 -0 0 1 0 1 1 0 -1 -2 -2 -2 -2 -2 -3 -3 -3 -5 -6 -6 -8 -7 -7 -6 -6 -7 -8 -9 -9
Wind_Speed
8 5 4 3 5 4 6 7 7 9 12 12 13 12 8 6 7 5 2 2 2 3 3 5 7 9 11 9 11 13 14 14 16 17 13 10 11 16 20 21 20 18 15
9 6 4 4 2 3 5 6 8 10 10 11 12 12 11 9 6 6 6 6 5 4 3 1 3 4 8 10 13 13 12 11 11 10 10 12 10 7 10 7 3 3 4
9 6 4 3 1 2 4 6 7 8 10 12 12 12 11 11 11 10 9 7 6 5 3 2 1 3 6 9 9 10 10 11 11 8 6 6 7 10 8 0 3 6 6
7 6 4 3 1 3 5 6 5 6 7 8 10 12 12 11 10 11 10 9 7 4 4 4 4 3 4 3 1 1 3 4 3 1 5 4 4 7 2 3 4 4 5
6 6 6 5 3 2 3 4 2 3 6 7 7 10 10 8 9 9 9 10 10 10 9 8 6 5 5 5 3 3 5 6 7 7 5 5 6 4 2 2 3 4 4
7 8 7 9 7 9 1 2 3 2 5 5 6 5 6 7 7 7 8 8 7 8 8 8 8 7 7 7 5 4 3 4 3 2 2 1 2 2 2 2 2 1 1
9 8 8 10 9 12 5 3 6 3 3 3 4 5 5 5 5 6 7 8 7 7 8 9 9 11 12 11 9 7 6 5 3 2 2 2 1 1 2 1 1 1 0
7 8 9 13 12 14 10 9 10 5 4 1 1 2 3 3 5 7 9 8 9 11 11 9 9 10 12 10 8 8 8 7 8 8 7 6 6 7 7 6 5 3 3
4 6 7 11 14 15 11 14 12 9 5 3 2 1 1 1 3 7 10 6 7 7 6 9 7 8 8 10 6 6 6 7 8 7 7 7 6 6 5 4 3 0 2
6 8 9 8 9 11 11 14 13 10 8 6 5 7 4 2 2 5 9 2 5 5 5 4 4 5 5 7 6 5 7 7 6 8 8 8 6 5 5 6 4 2 2
7 8 8 7 5 9 10 15 13 11 11 11 8 5 5 3 4 4 9 4 4 5 3 1 3 2 2 2 1 4 4 6 10 7 6 6 6 7 7 4 4 3 3
5 6 7 6 3 7 11 14 15 14 15 10 7 8 9 6 5 4 7 6 10 5 2 2 1 1 3 2 2 3 8 9 4 1 2 3 3 4 5 6 4 3 6
3 3 3 4 2 4 7 10 13 16 14 12 10 9 7 6 7 6 7 7 6 3 2 1 2 4 8 5 4 6 7 4 0 1 1 2 2 3 6 9 8 8 11
0 1 2 3 2 0 3 5 7 10 10 8 8 8 8 7 5 4 4 4 4 2 2 1 3 5 4 3 7 4 2 3 3 1 1 1 2 2 2 1 2 2 2
3 3 2 2 2 2 2 2 3 5 6 6 7 7 6 6 6 6 5 3 3 4 5 8 6 1 1 1 1 1 2 2 1 1 1 1 1 1 1 2 2 2 2
6 6 5 5 5 5 5 3 2 2 3 4 5 5 5 5 5 5 5 5 6 6 3 1 4 3 2 2 2 2 2 1 1 0 1 1 1 1 1 2 2 1 2
8 8 8 8 7 8 8 7 5 4 4 3 3 3 3 4 5 6 6 5 4 6 2 4 4 4 3 3 3 4 4 4 4 1 2 1 1 2 2 2 2 2 3
9 12 7 6 5 5 4 4 4 5 5 3 3 3 5 6 6 6 5 4 1 2 1 5 5 5 4 4 4 4 4 3 3 3 3 2 2 3 3 3 3 3 4
10 8 8 8 7 7 6 5 4 3 3 2 2 1 3 4 5 5 5 4 3 5 5 5 5 5 5 6 6 5 6 5 7 6 4 4 4 4 5 5 6 6 6
11 14 11 9 8 7 6 6 5 4 3 0 0 2 3 3 3 4 6 4 5 6 6 7 7 7 7 8 7 6 6 7 7 8 6 7 7 6 6 7 6 7 6
11 8 10 7 6 5 5 4 4 4 3 2 1 6 8 5 6 6 6 7 7 7 8 9 9 10 9 9 9 8 7 8 10 9 9 10 9 9 8 8 8 8 8
8 6 5 4 3 3 2 2 3 3 3 3 3 7 7 9 5 7 7 9 9 9 10 10 9 10 11 11 10 11 10 10 10 10 11 12 12 11 10 10 10 10 10
6 5 3 2 1 5 3 3 5 6 6 5 5 6 6 4 7 8 9 11 11 11 12 12 12 11 11 12 12 13 12 12 11 12 13 13 13 13 13 12 11 12 12
5 4 3 4 3 5 7 9 8 10 11 10 9 8 8 9 10 11 12 12 13 13 14 13 12 11 11 12 12 13 13 13 13 13 14 16 15 15 15 16 14 14 15
4 4 5 5 4 6 7 7 9 10 10 10 11 10 10 11 13 14 15 15 15 16 17 16 15 15 15 14 15 14 17 17 18 19 20 13 15 16 17 16 15 15 16
2 2 2 3 6 6 8 10 8 8 8 8 9 10 12 14 15 17 16 17 19 21 19 19 20 19 20 18 18 18 22 23 21 20 19 15 17 17 17 17 17 18 17
Wind_Direction
155 155 130 90 32 5 21 348 19 17 21 18 16 25 30 37 47 82 97 92 155 160 214 213 218 224 228 237 250 243 250 259 260 261 266 260 276 292 293 295 286 281 285
163 139 139 86 60 4 49 4 14 29 31 25 25 35 39 43 53 53 66 85 94 87 95 148 232 240 248 244 244 251 255 260 257 259 267 263 278 291 309 309 324 74 14
155 139 144 112 11 29 55 46 24 41 40 38 30 38 41 45 54 59 63 72 76 66 79 106 165 263 257 248 252 250 257 250 256 253 235 266 272 285 269 336 355 336 343
154 159 185 166 180 337 52 54 16 38 35 37 43 46 47 50 55 57 57 60 68 73 55 51 63 56 34 36 356 275 324 303 288 288 235 216 165 143 205 274 282 295 322
181 208 212 202 194 213 60 56 16 49 37 38 42 49 41 39 62 59 59 62 66 68 69 69 65 54 38 31 22 61 84 93 113 121 129 128 148 170 216 279 270 276 291
221 230 229 225 222 261 158 339 269 12 9 29 36 30 41 41 50 53 61 56 64 68 67 64 63 57 56 59 65 63 53 72 83 122 159 209 237 250 270 278 251 208 292
221 241 249 245 240 257 228 186 273 305 322 11 18 39 42 45 52 56 60 57 50 57 67 71 75 79 69 71 73 75 88 93 89 111 126 144 91 132 96 27 121 155 31
241 239 229 251 233 251 253 218 264 271 261 297 4 356 35 45 56 69 74 71 79 76 75 87 95 98 97 77 76 77 82 92 87 78 91 103 97 91 78 69 75 61 71
253 282 260 234 233 246 257 241 254 257 232 206 183 199 69 59 74 88 87 63 83 91 113 109 95 101 96 94 73 73 82 78 79 76 74 72 68 70 89 59 5 146 49
257 273 291 286 259 243 250 262 239 243 223 201 187 214 215 185 146 118 115 96 90 77 77 114 102 108 101 104 101 84 91 93 82 46 46 45 48 74 144 146 56 340 330
285 298 308 304 265 234 245 238 237 216 227 214 227 230 238 215 193 144 138 138 133 136 148 93 144 127 100 127 112 130 128 83 66 55 45 43 40 33 23 33 112 54 52
286 304 316 318 279 238 244 242 228 198 219 219 213 201 227 218 209 211 204 215 197 201 182 180 141 61 82 82 87 101 107 86 78 53 46 36 44 33 25 38 45 62 153
293 309 337 356 328 238 230 235 227 212 228 221 237 234 234 224 231 230 232 216 210 177 179 183 117 82 57 63 83 102 75 39 178 95 61 35 22 37 23 12 11 34 30
196 31 4 357 13 329 190 201 215 226 227 234 230 219 220 217 229 219 212 197 209 237 219 87 55 67 108 40 58 31 108 157 126 109 69 35 32 23 28 55 13 15 315
100 79 90 86 70 83 114 152 182 194 198 211 207 202 197 224 221 218 191 198 176 138 97 61 50 40 6 27 31 29 31 38 87 73 11 13 1 346 334 16 24 355 330
98 91 90 92 90 85 76 81 109 153 189 189 184 190 204 204 214 212 197 177 171 152 102 5 250 255 245 243 249 264 275 164 250 296 339 347 324 291 300 348 3 355 317
110 101 90 87 88 83 74 64 75 98 119 148 183 197 196 202 199 176 167 165 170 150 27 262 254 253 250 254 251 247 249 230 202 247 304 289 303 299 14 303 303 295 275
130 125 114 112 107 103 99 90 68 64 59 79 114 136 146 156 166 169 165 159 124 44 96 252 249 253 258 257 258 259 243 270 249 250 263 273 309 275 266 269 283 267 276
114 120 118 115 117 105 93 89 84 90 96 120 93 119 173 180 179 177 163 157 253 257 260 259 254 261 265 263 258 250 240 243 237 248 261 264 274 274 267 260 264 267 269
137 135 115 101 93 90 81 69 58 66 85 153 264 216 221 206 211 231 227 269 260 256 266 268 270 264 258 258 263 265 265 262 262 257 253 255 267 270 261 265 253 252 254
128 118 126 106 98 90 75 63 56 48 39 14 250 228 215 220 254 258 253 257 261 268 274 269 266 271 266 264 266 260 261 259 259 255 253 258 260 263 264 265 254 251 254
136 124 127 124 99 70 16 342 350 344 345 335 294 275 308 235 250 256 260 264 267 269 267 268 268 269 270 267 259 262 261 258 259 257 257 257 258 262 263 263 256 250 251
158 158 155 161 264 277 277 303 303 293 295 297 299 282 292 274 270 270 270 271 270 267 261 262 268 268 267 264 258 257 258 258 258 262 261 262 259 258 259 260 257 251 249
189 212 249 267 290 310 316 311 315 305 286 281 281 275 274 274 280 280 277 276 274 271 268 267 269 268 267 264 258 259 264 262 259 259 264 262 258 258 260 258 255 252 250
237 245 276 297 320 309 336 323 317 309 303 281 280 277 288 295 289 284 283 273 269 264 264 265 267 267 270 270 256 253 259 260 256 257 269 264 261 256 255 255 258 253 252
227 262 299 338 315 315 319 328 330 326 320 305 296 304 302 296 289 293 289 283 277 277 271 268 269 268 268 266 265 261 255 263 271 277 278 260 256 259 259 258 257 252 251
Height
1538 1538 1539 1539 1539 1538 1539 1536 1534 1531 1529 1528 1526 1523 1521 1520 1518 1518 1518 1518 1519 1519 1520 1522 1524 1526 1528 1529 1531 1531 1532 1533 1533 1534 1534 1534 1534 1535 1536 1536 1534 1532 1532
1537 1537 1539 1539 1540 1539 1539 1536 1533 1532 1531 1529 1529 1526 1524 1522 1520 1519 1518 1519 1519 1520 1520 1522 1523 1525 1525 1526 1527 1528 1529 1529 1530 1530 1531 1531 1532 1533 1533 1532 1532 1527 1529
1537 1537 1540 1540 1541 1538 1538 1536 1534 1534 1532 1530 1530 1528 1526 1525 1523 1521 1520 1521 1520 1520 1521 1522 1523 1523 1524 1523 1523 1524 1524 1524 1525 1525 1526 1528 1529 1530 1531 1531 1530 1530 1529
1537 1538 1540 1540 1540 1537 1536 1536 1536 1535 1532 1531 1531 1530 1530 1528 1526 1524 1523 1522 1522 1522 1522 1523 1523 1523 1523 1522 1522 1523 1523 1522 1522 1522 1524 1525 1526 1529 1530 1530 1530 1529 1529
1537 1538 1539 1539 1538 1537 1537 1536 1536 1535 1533 1532 1532 1532 1533 1531 1528 1528 1526 1525 1524 1523 1523 1523 1523 1524 1524 1524 1523 1524 1524 1524 1524 1524 1526 1527 1527 1529 1529 1529 1529 1529 1529
1537 1537 1537 1537 1537 1534 1535 1535 1535 1534 1534 1534 1533 1533 1533 1532 1531 1531 1530 1528 1528 1527 1526 1525 1525 1525 1525 1525 1525 1526 1527 1527 1527 1528 1528 1528 1529 1529 1529 1529 1529 1529 1530
1535 1536 1536 1535 1534 1533 1535 1534 1533 1534 1534 1535 1535 1535 1534 1534 1534 1533 1532 1532 1531 1530 1529 1528 1527 1527 1527 1527 1527 1527 1527 1528 1528 1528 1528 1529 1530 1530 1529 1529 1529 1530 1530
1533 1532 1532 1531 1532 1530 1533 1532 1533 1534 1535 1535 1535 1536 1536 1536 1536 1535 1534 1535 1534 1533 1533 1532 1530 1530 1530 1530 1529 1529 1529 1529 1529 1529 1530 1530 1531 1531 1531 1531 1531 1531 1531
1530 1528 1526 1527 1527 1527 1530 1530 1531 1533 1535 1535 1536 1536 1536 1537 1537 1537 1538 1539 1538 1535 1533 1532 1533 1533 1533 1532 1533 1532 1531 1532 1532 1532 1532 1532 1532 1532 1533 1534 1535 1535 1533
1525 1523 1523 1523 1523 1525 1527 1528 1529 1531 1533 1534 1535 1536 1536 1536 1537 1538 1539 1541 1539 1537 1536 1535 1535 1535 1535 1535 1536 1538 1536 1536 1536 1534 1533 1534 1533 1533 1534 1534 1536 1535 1534
1522 1521 1521 1520 1521 1523 1525 1527 1528 1529 1531 1532 1533 1535 1537 1536 1536 1538 1540 1541 1540 1540 1538 1536 1536 1535 1536 1536 1536 1537 1537 1536 1536 1538 1538 1538 1538 1536 1535 1533 1532 1534 1533
1520 1519 1519 1519 1519 1522 1523 1525 1527 1527 1529 1530 1532 1534 1534 1536 1536 1536 1538 1539 1538 1538 1537 1537 1537 1536 1535 1536 1535 1537 1537 1538 1539 1540 1539 1539 1538 1537 1535 1533 1532 1532 1531
1519 1519 1519 1518 1519 1521 1522 1522 1525 1526 1528 1529 1530 1532 1533 1534 1534 1535 1536 1537 1537 1537 1537 1538 1536 1537 1536 1536 1537 1538 1538 1541 1540 1540 1539 1540 1538 1536 1535 1534 1536 1533 1533
1519 1519 1519 1520 1521 1521 1521 1522 1524 1525 1526 1528 1529 1530 1532 1532 1534 1535 1536 1536 1537 1537 1538 1539 1538 1538 1538 1538 1538 1540 1540 1541 1540 1540 1540 1539 1538 1538 1538 1538 1538 1537 1536
1519 1520 1521 1521 1522 1522 1523 1524 1525 1526 1527 1528 1528 1531 1531 1533 1533 1534 1535 1536 1537 1538 1539 1540 1540 1542 1541 1540 1540 1541 1541 1541 1540 1540 1540 1539 1538 1539 1539 1537 1536 1536 1536
1521 1521 1522 1523 1524 1525 1525 1526 1526 1527 1527 1529 1530 1531 1531 1533 1534 1536 1537 1537 1539 1539 1540 1542 1543 1542 1541 1541 1541 1542 1541 1540 1540 1539 1539 1538 1538 1538 1538 1537 1536 1537 1536
1523 1524 1526 1528 1528 1528 1528 1529 1528 1529 1529 1530 1531 1532 1532 1534 1535 1536 1537 1538 1539 1539 1540 1542 1542 1542 1541 1541 1541 1541 1541 1539 1537 1538 1539 1538 1537 1537 1537 1537 1537 1536 1536
1527 1529 1532 1533 1534 1534 1535 1535 1534 1534 1534 1532 1532 1533 1533 1534 1535 1536 1537 1538 1540 1540 1540 1542 1542 1542 1541 1541 1541 1540 1538 1538 1538 1538 1538 1538 1536 1537 1537 1536 1536 1536 1535
1530 1533 1534 1535 1536 1536 1536 1537 1537 1537 1537 1537 1535 1535 1535 1536 1536 1537 1537 1538 1540 1541 1542 1541 1541 1540 1540 1540 1539 1538 1537 1537 1536 1537 1536 1537 1536 1536 1536 1535 1535 1534 1533
1532 1533 1535 1536 1537 1538 1538 1538 1538 1538 1538 1538 1538 1538 1537 1536 1538 1539 1539 1540 1541 1541 1541 1541 1540 1539 1539 1538 1537 1535 1534 1534 1535 1535 1535 1536 1535 1534 1534 1534 1533 1533 1532
1535 1536 1537 1539 1539 1540 1540 1540 1540 1540 1539 1539 1539 1538 1538 1539 1539 1539 1539 1540 1540 1540 1540 1540 1539 1538 1537 1535 1534 1533 1533 1534 1534 1534 1534 1534 1533 1533 1532 1532 1531 1531 1530
1537 1538 1539 1540 1541 1541 1541 1541 1541 1540 1540 1539 1539 1538 1538 1538 1538 1538 1538 1539 1539 1538 1538 1537 1536 1535 1534 1533 1532 1531 1531 1531 1531 1531 1531 1531 1531 1530 1530 1529 1528 1528 1527
1538 1539 1540 1540 1541 1540 1539 1539 1539 1539 1538 1537 1538 1537 1536 1537 1537 1537 1537 1537 1537 1536 1536 1534 1533 1531 1530 1529 1529 1529 1529 1528 1529 1529 1528 1528 1528 1527 1526 1526 1525 1524 1524
1538 1539 1539 1539 1538 1539 1538 1538 1537 1536 1536 1535 1535 1534 1535 1535 1535 1535 1535 1535 1534 1534 1532 1531 1529 1528 1527 1526 1526 1525 1525 1525 1525 1525 1524 1524 1523 1523 1522 1522 1521 1521 1520
1537 1538 1538 1538 1538 1539 1537 1536 1535 1534 1533 1532 1533 1532 1533 1533 1532 1531 1531 1529 1529 1528 1527 1526 1526 1525 1524 1523 1522 1522 1520 1520 1520 1519 1519 1520 1519 1518 1518 1517 1517 1516 1516
1536 1537 1537 1537 1538 1537 1536 1535 1534 1533 1532 1532 1531 1530 1530 1530 1529 1527 1525 1524 1524 1523 1522 1521 1521 1520 1519 1518 1517 1517 1516 1514 1513 1513 1513 1513 1513 1513 1512 1512 1511 1511 1510